Regional Weather Roundup
Issued by NWS

Home | Current Version | Previous Version | Graphics & Text | Print | Product List | Glossary On
Versions: 1 2 3 4 5 6 7 8 9 10 11 12 13 14 15 16 17 18 19 20 21 22 23 24 25 26 27 28 29 30 31 32 33 34 35 36 37 38 39 40 41 42 43 44 45 46 47 48 49 50
000
ASUS43 KLOT 252300
RWRIL

ILLINOIS REGIONAL WEATHER ROUNDUP
NATIONAL WEATHER SERVICE CHICAGO/ROMEOVILLE IL
500 PM CST TUE NOV 25 2014

NOTE: "FAIR" INDICATES FEW OR NO CLOUDS BELOW 12,000 FEET WITH NO
SIGNIFICANT WEATHER AND/OR OBSTRUCTIONS TO VISIBILITY.

* THESE STATIONS ARE NOT UNDER NWS QUALITY CONTROL. THEY ALSO MAY NOT
  REPORT WEATHER SUCH AS PRECIPITATION OR FOG.

ILZ001-002-007-009-015-016-024-260000-
NORTHWEST ILLINOIS

CITY           SKY/WX    TMP DP  RH WIND       PRES   REMARKS
MOLINE         CLEAR     24  16  71 S3        30.14F
STERLING*      CLEAR     18  10  73 CALM      30.15F
$$

ILZ003-004-008-010-011-017-018-260000-
NORTH CENTRAL ILLINOIS

CITY           SKY/WX    TMP DP  RH WIND       PRES   REMARKS
ROCKFORD       CLEAR     19  13  77 W3        30.16F
$$

ILZ005-006-012>014-019>023-260000-
NORTHEAST ILLINOIS

CITY           SKY/WX    TMP DP  RH WIND       PRES   REMARKS
CHICAGO-OHARE  PTCLDY    22  16  78 W9        30.14R WCI  12
CHICAGO-MIDWAY PTCLDY    24  17  74 SW9       30.16R WCI  14
AURORA         PTCLDY    20  14  77 W6        30.16R WCI  12
WAUKEGAN       MOCLDY    21  15  78 W7        30.13R WCI  12
DUPAGE AIRPORT MOCLDY    20  14  77 W8        30.14S WCI  10
WHEELING       CLEAR     23  15  71 W7        30.16R WCI  15
NORTHERLY ISL    N/A     25  17  72 SW7         N/A  WCI  17
$$

LMZ740>746-260000-
SOUTHERN LAKE MICHIGAN

STATION/POSITION SKY/WX   TEMP    WIND        PRES    VSBY  WAVE
                          AIR SEA DIR/SP/G                  HT/PER
                          (F)     (DEG/KT/KT) (MB)    (MI)  (FT/S)
SOUTHERN BUOY              29 42  250/ 12/ 16 1020.9R         3/ 6
WAUKEGAN HARBOR            24     270/  9/ 12   N/A
HARRISON CRIB              25     240/ 12/ 14   N/A
BURNHAM HARBOR             25     260/  4/ 14   N/A
CALUMET HARBOR             24     230/  7/ 11 1019.9R
MICHIGAN CITY              26     190/  9/ 12   N/A
$$

ILZ025>027-034>036-040-047-049-050-058-095>099-260000-
WEST-CENTRAL ILLINOIS

CITY           SKY/WX    TMP DP  RH WIND       PRES   REMARKS
QUINCY         CLEAR     32  20  61 CALM      30.13S
$$

ILZ028>032-037-038-041>044-048-051>054-059>061-260000-
CENTRAL ILLINOIS

CITY           SKY/WX    TMP DP  RH WIND       PRES   REMARKS
DECATUR        PTCLDY    29  22  75 CALM      30.16R
PEORIA         CLEAR     28  20  71 CALM      30.16R
SPRINGFIELD    CLEAR     31  24  75 W3        30.16R
TAYLORVILLE    NOT AVBL
$$

ILZ033-039-045-046-055>057-062-063-260000-
EAST-CENTRAL ILLINOIS

CITY           SKY/WX    TMP DP  RH WIND       PRES   REMARKS
CHAMPAIGN      CLOUDY    27  21  78 NW7       30.17R WCI  19
MATTOON        CLOUDY    30  22  72 W3        30.17R
$$

ILZ079-100>102-260000-
SOUTHWEST ILLINOIS

CITY           SKY/WX    TMP DP  RH WIND       PRES   REMARKS
ALTON          CLEAR     34  25  69 W6        30.16S WCI  29
CAHOKIA*       CLEAR     35  26  69 NW3       30.17R
$$

ILZ064>066-069>071-074>076-080>082-084>086-088>090-092>094-260000-
SOUTH-CENTRAL ILLINOIS

CITY           SKY/WX    TMP DP  RH WIND       PRES   REMARKS
CARBONDALE     CLEAR     37  23  56 CALM      30.17R
MARION         PTCLDY    34  27  75 CALM      30.18R
MT. VERNON     CLEAR     32  21  64 CALM      30.18R
$$

ILZ067-068-072-073-078-083-087-091-260000-
SOUTHEAST ILLINOIS

CITY           SKY/WX    TMP DP  RH WIND       PRES   REMARKS
LAWRENCEVILLE  CLOUDY    32  24  72 VRB3      30.19S
$$

ABBREVIATIONS USED IN REMARKS
   TC - TEMPERATURE IN CELSIUS
  WCI - WIND CHILL INDEX
   HX - HEAT INDEX
  VSB - VISIBILITY
$$




USA.gov is the U.S. government's official web portal to all federal, state and local government web resources and services.